This is the latest recevied weather packets stored in our database for station/object KV4OP. If no packets are shown the sender has not sent any weather packets the latest 10 day(s).
| Time | Temp. | Humidity | Pressure | Rain* | Wind** | Luminosity | Snow |
|---|---|---|---|---|---|---|---|
| 1777671360 | 31.67° C | 49% | 1008.9 hPa | 0 mm | - | - | - |
| 1777671059 | 32.22° C | 52% | 1008.9 hPa | 0 mm | - | - | - |
| 1777670758 | 32.22° C | 50% | 1008.8 hPa | 0 mm | - | - | - |
| 1777670458 | 32.22° C | 46% | 1008.9 hPa | 0 mm | - | - | - |
| 1777670164 | 32.78° C | 48% | 1009.1 hPa | 0 mm | - | - | - |
| 1777669858 | 32.22° C | 49% | 1009.3 hPa | 0 mm | - | - | - |
| 1777669556 | 32.22° C | 48% | 1009.2 hPa | 0 mm | - | - | - |
| 1777669259 | 32.22° C | 48% | 1009.3 hPa | 0 mm | - | - | - |
| 1777668957 | 32.22° C | 48% | 1009.3 hPa | 0 mm | - | - | - |
| 1777668654 | 32.22° C | 49% | 1009.3 hPa | 0 mm | - | - | - |
| 1777668356 | 32.22° C | 48% | 1009.3 hPa | 0 mm | - | - | - |
| 1777668054 | 32.22° C | 48% | 1009.2 hPa | 0 mm | - | - | - |
| 1777667754 | 32.78° C | 54% | 1009.3 hPa | 0 mm | - | - | - |
| 1777667454 | 32.78° C | 51% | 1009.3 hPa | 0 mm | - | - | - |
| 1777667154 | 32.22° C | 56% | 1009.3 hPa | 0 mm | - | - | - |
| 1777666854 | 32.22° C | 48% | 1009.3 hPa | 0 mm | - | - | - |
| 1777666557 | 32.22° C | 47% | 1009.4 hPa | 0 mm | - | - | - |
| 1777666253 | 32.22° C | 51% | 1009.4 hPa | 0 mm | - | - | - |
| 1777665953 | 32.78° C | 48% | 1009.5 hPa | 0 mm | - | - | - |
| 1777665655 | 32.78° C | 48% | 1009.6 hPa | 0 mm | - | - | - |
| 1777665351 | 32.78° C | 48% | 1009.6 hPa | 0 mm | - | - | - |
| 1777665050 | 32.22° C | 51% | 1009.9 hPa | 0 mm | - | - | - |
| 1777664757 | 32.22° C | 51% | 1010 hPa | 0 mm | - | - | - |
| 1777664448 | 31.67° C | 49% | 1010.2 hPa | 0 mm | - | - | - |
| 1777664147 | 32.22° C | 50% | 1010.3 hPa | 0 mm | - | - | - |
* Rain latest hour (hover to see other rain measurements)
** Current wind speed in m/s (hover to see current wind gust speed)